User: anonymous   Login
Location: Unspecified
(0.0000°N, 0.0000°E)
Time: 12:35:05
(UTC+00:00)
Language:

COSMOS 2439 - Orbit

View from above orbital plane
View from above orbital plane
View from above satellite
View from above satellite

Ground track
Ground track

The orbit data is extracted from the following two-line orbital elements,

1 32956U 08025D   18171.68182048  .00000022  00000-0  84407-4 0  9996
2 32956  82.5061  11.7651 0019990 202.2869 157.7345 12.43004890457208
Epoch (UTC): 20 June 2018 16:21:49
Eccentricity: 0.0019990
inclination: 82.5061°
perigee height: 1478 km
apogee height: 1509 km
right ascension of ascending node: 11.7651°
argument of perigee: 202.2869°
revolutions per day: 12.43004890
mean anomaly at epoch: 157.7345°
orbit number at epoch: 45720

The dashed part of the orbit path shows where the satellite is in the earth's shadow,  

DLR